Location: Cortada de Papelón
(10.0378°N, 66.9528°W)
Time: 09:44:52
(UTC+00:00)

Delta 202 - Pass Details

Date: 13 June 2024
Orbit: 781 x 2712 km, 18.5° (Epoch: 19 July)

Event Time Altitude Azimuth Distance (km) Brightness Sun altitude
Rises 23:03:12 0° 289° (WNW) 3,839 10.0 -4.0°
Reaches altitude 10° 23:06:18 10° 295° (WNW) 2,675 8.3 -4.6°
Maximum altitude 23:12:08 48° 9° (N) 1,057 4.4 -6.0°
Drops below altitude 10° 23:17:12 10° 84° (E) 2,317 5.5 -7.1°
Enters shadow 23:18:22 - 87° (E) 2,762 5.8 -7.3°
